Main page
METAR-TAF:

METAR-TAF

Airports :

Kharg Airport

Kharg Island, Iran

latitude: 29-15-34N, longitude: 50-19-24E, elevation: 5 m

Current weather observation

The report was made 1 hour and 23 minutes ago, at 15:00 UTC
Wind 16 kt from the West/Northwest
Temperature 15°C
Humidity 63%
Pressure 1017 hPa
Visibility: 3000 m
widespread dust

METAR: OIBQ 171500Z 29016KT 3000 DU NSC 15/08 Q1017

Time: 19:53 (16:23 UTC)


TAF: missing

Weather observations and forecasts of more than 4000 airports (METAR and TAF reports).

The available stations are represented by yellow and red dots on the map.

Hover mouse over dot to see the name of the station.

Then click to see weather observations and forecasts.

To change the map : click on the green buttons with a black cross to zoom in, on the green button with a dash to zoom out, or on the green arrows for adjacent maps.


METAR-TAF: